| time (UTC) | temp F | wind direction | speed MPH | gust MPH | rain 1hr in | rain 24hr in | rain mn in | humidity % | barometer mb |
| 20260905113031 | 0 | 0.0 | 0.0 | 0.00 | 0.00 | 0.00 | 1013.3 | ||
| 20260905113008 | 76 | 249 | 0.0 | 0.0 | 0.00 | 0.00 | 0.00 | 93 | 1013.9 |
| 20260905112507 | 76 | 249 | 0.0 | 1.0 | 0.00 | 0.00 | 0.00 | 93 | 1013.8 |
| 20260905112007 | 76 | 249 | 0.0 | 1.0 | 0.00 | 0.00 | 0.00 | 93 | 1013.8 |
| 20260905111528 | 0 | 0.0 | 0.0 | 0.00 | 0.00 | 0.00 | 1013.2 | ||
| 20260905111519 | 76 | 249 | 0.0 | 1.0 | 0.00 | 0.00 | 0.00 | 93 | 1013.7 |
| 20260905111009 | 76 | 249 | 0.0 | 1.0 | 0.00 | 0.00 | 0.00 | 92 | 1013.6 |
| 20260905110509 | 76 | 249 | 0.0 | 1.0 | 0.00 | 0.00 | 0.00 | 92 | 1013.5 |
| 20260905110023 | 76 | 249 | 0.0 | 1.0 | 0.00 | 0.00 | 0.00 | 92 | 1013.5 |
| 20260905110021 | 0 | 0.0 | 0.0 | 0.00 | 0.00 | 0.00 | 1013.1 | ||
| 20260905105514 | 76 | 249 | 0.0 | 0.0 | 0.00 | 0.00 | 0.00 | 91 | 1013.5 |
| 20260905105004 | 76 | 249 | 0.0 | 1.0 | 0.00 | 0.00 | 0.00 | 91 | 1013.5 |
| 20260905104516 | 0 | 108 | 0.0 | 0.0 | 0.00 | 0.00 | 0.00 | 1013.2 | |
| 20260905104505 | 76 | 249 | 0.0 | 1.0 | 0.00 | 0.00 | 0.00 | 91 | 1013.5 |
| 20260905104003 | 77 | 249 | 0.0 | 0.0 | 0.00 | 0.00 | 0.00 | 90 | 1013.6 |
| 20260905103506 | 77 | 249 | 0.0 | 0.0 | 0.00 | 0.00 | 0.00 | 90 | 1013.6 |
| 20260905103012 | 76 | 115 | 0.0 | 1.0 | 0.00 | 0.00 | 0.00 | 62 | 1013.0 |
| 20260905103007 | 77 | 249 | 0.0 | 0.0 | 0.00 | 0.00 | 0.00 | 90 | 1013.7 |
| 20260905102504 | 77 | 249 | 0.0 | 0.0 | 0.00 | 0.00 | 0.00 | 90 | 1013.7 |
| 20260905102003 | 77 | 249 | 0.0 | 0.0 | 0.00 | 0.00 | 0.00 | 89 | 1013.7 |
| 20260905101514 | 77 | 249 | 0.0 | 0.0 | 0.00 | 0.00 | 0.00 | 89 | 1013.7 |
| 20260905101510 | 76 | 115 | 0.0 | 2.0 | 0.00 | 0.00 | 0.00 | 63 | 1013.1 |
| 20260905101007 | 77 | 249 | 0.0 | 0.0 | 0.00 | 0.00 | 0.00 | 89 | 1013.7 |
| 20260905100510 | 77 | 249 | 0.0 | 2.0 | 0.00 | 0.00 | 0.00 | 89 | 1013.7 |
| 20260905100018 | 77 | 249 | 0.0 | 2.0 | 0.00 | 0.00 | 0.00 | 89 | 1013.7 |
| 20260905100008 | 76 | 117 | 0.0 | 1.0 | 0.00 | 0.00 | 0.00 | 63 | 1013.1 |
| 20260905095511 | 77 | 321 | 0.0 | 3.0 | 0.00 | 0.00 | 0.00 | 89 | 1013.7 |
| 20260905095011 | 78 | 321 | 0.0 | 3.0 | 0.00 | 0.00 | 0.00 | 89 | 1013.7 |
| 20260905094525 | 77 | 91 | 0.0 | 4.0 | 0.00 | 0.00 | 0.00 | 89 | 1013.7 |
| 20260905094506 | 76 | 116 | 0.0 | 1.0 | 0.00 | 0.00 | 0.00 | 61 | 1013.1 |
| 20260905094015 | 77 | 175 | 1.0 | 4.0 | 0.00 | 0.00 | 0.00 | 89 | 1013.6 |
| 20260905093503 | 77 | 275 | 0.0 | 2.0 | 0.00 | 0.00 | 0.00 | 89 | 1013.6 |
| 20260905093004 | 76 | 116 | 0.0 | 1.0 | 0.00 | 0.00 | 0.00 | 61 | 1013.0 |
| 20260905092504 | 77 | 271 | 0.0 | 2.0 | 0.00 | 0.00 | 0.00 | 89 | 1013.4 |
| 20260905092003 | 77 | 311 | 0.0 | 2.0 | 0.00 | 0.00 | 0.00 | 89 | 1013.4 |
| 20260905091511 | 77 | 293 | 0.0 | 1.0 | 0.00 | 0.00 | 0.00 | 89 | 1013.4 |
| 20260905091502 | 77 | 116 | 0.0 | 1.0 | 0.00 | 0.00 | 0.00 | 62 | 1013.0 |
| 20260905091002 | 77 | 293 | 0.0 | 2.0 | 0.00 | 0.00 | 0.00 | 89 | 1013.5 |
| 20260905090507 | 78 | 293 | 0.0 | 2.0 | 0.00 | 0.00 | 0.00 | 89 | 1013.5 |
| 20260905090017 | 78 | 271 | 0.0 | 2.0 | 0.00 | 0.00 | 0.00 | 89 | 1013.4 |
| 20260905085510 | 78 | 271 | 0.0 | 2.0 | 0.00 | 0.00 | 0.00 | 89 | 1013.5 |
| 20260905085012 | 78 | 265 | 0.0 | 2.0 | 0.00 | 0.00 | 0.00 | 88 | 1013.6 |
| 20260905084658 | 77 | 116 | 0.0 | 1.0 | 0.00 | 0.00 | 0.00 | 61 | 1012.9 |
| 20260905084519 | 78 | 275 | 0.0 | 2.0 | 0.00 | 0.00 | 0.00 | 88 | 1013.5 |
| 20260905084017 | 78 | 269 | 0.0 | 3.0 | 0.00 | 0.00 | 0.00 | 88 | 1013.6 |
| 20260905083513 | 78 | 240 | 0.0 | 3.0 | 0.00 | 0.00 | 0.00 | 88 | 1013.6 |
| 20260905083054 | 77 | 117 | 0.0 | 2.0 | 0.00 | 0.00 | 0.00 | 60 | 1012.8 |
| 20260905083033 | 78 | 241 | 0.0 | 3.0 | 0.00 | 0.00 | 0.00 | 88 | 1013.6 |
| 20260905082503 | 78 | 294 | 0.0 | 3.0 | 0.00 | 0.00 | 0.00 | 88 | 1013.5 |
| 20260905082004 | 78 | 294 | 1.0 | 3.0 | 0.00 | 0.00 | 0.00 | 88 | 1013.5 |
| 20260905081552 | 77 | 116 | 0.0 | 0.0 | 0.00 | 0.00 | 0.00 | 59 | 1013.0 |
| 20260905081505 | 78 | 234 | 0.0 | 3.0 | 0.00 | 0.00 | 0.00 | 88 | 1013.4 |
| 20260905081005 | 78 | 272 | 0.0 | 3.0 | 0.00 | 0.00 | 0.00 | 88 | 1013.4 |
| 20260905080506 | 78 | 241 | 1.0 | 4.0 | 0.00 | 0.00 | 0.00 | 88 | 1013.4 |
| 20260905080049 | 77 | 116 | 0.0 | 1.0 | 0.00 | 0.00 | 0.00 | 60 | 1012.9 |
| 20260905080015 | 78 | 266 | 0.0 | 4.0 | 0.00 | 0.00 | 0.00 | 88 | 1013.4 |
| 20260905075510 | 78 | 251 | 0.0 | 2.0 | 0.00 | 0.00 | 0.00 | 88 | 1013.4 |
| 20260905075009 | 78 | 310 | 0.0 | 2.0 | 0.00 | 0.00 | 0.00 | 88 | 1013.4 |
| 20260905074548 | 78 | 116 | 0.0 | 3.0 | 0.00 | 0.00 | 0.00 | 60 | 1013.0 |
| 20260905074520 | 78 | 241 | 0.0 | 4.0 | 0.00 | 0.00 | 0.00 | 88 | 1013.5 |
| 20260905074012 | 78 | 252 | 1.0 | 4.0 | 0.00 | 0.00 | 0.00 | 88 | 1013.4 |
| 20260905073512 | 78 | 260 | 0.0 | 4.0 | 0.00 | 0.00 | 0.00 | 89 | 1013.4 |
| 20260905073044 | 77 | 116 | 0.0 | 1.0 | 0.00 | 0.00 | 0.00 | 60 | 1013.0 |
| 20260905073026 | 78 | 237 | 0.0 | 4.0 | 0.00 | 0.00 | 0.00 | 89 | 1013.4 |
| 20260905072513 | 78 | 271 | 0.0 | 3.0 | 0.00 | 0.00 | 0.00 | 89 | 1013.3 |
| 20260905072014 | 78 | 262 | 1.0 | 2.0 | 0.00 | 0.00 | 0.00 | 89 | 1013.4 |
| 20260905071542 | 76 | 117 | 0.0 | 1.0 | 0.00 | 0.00 | 0.00 | 61 | 1013.2 |
| 20260905071506 | 78 | 242 | 0.0 | 2.0 | 0.00 | 0.00 | 0.00 | 88 | 1013.4 |
| 20260905071006 | 78 | 246 | 0.0 | 2.0 | 0.00 | 0.00 | 0.00 | 88 | 1013.5 |
| 20260905070502 | 79 | 246 | 0.0 | 2.0 | 0.00 | 0.00 | 0.00 | 88 | 1013.5 |
| 20260905070039 | 76 | 116 | 0.0 | 0.0 | 0.00 | 0.00 | 0.00 | 59 | 1013.2 |
| 20260905070015 | 79 | 26 | 0.0 | 2.0 | 0.00 | 0.00 | 0.00 | 88 | 1013.6 |
| 20260905065505 | 79 | 26 | 0.0 | 1.0 | 0.00 | 0.00 | 0.00 | 88 | 1013.6 |
| 20260905065007 | 79 | 26 | 0.0 | 1.0 | 0.00 | 0.00 | 0.00 | 87 | 1013.6 |
| 20260905064534 | 77 | 116 | 0.0 | 0.0 | 0.00 | 0.00 | 0.00 | 57 | 1013.2 |
| 20260905064515 | 79 | 26 | 0.0 | 2.0 | 0.00 | 0.00 | 0.00 | 87 | 1013.6 |
| 20260905064012 | 79 | 26 | 0.0 | 2.0 | 0.00 | 0.00 | 0.00 | 88 | 1013.7 |
| 20260905063511 | 79 | 352 | 0.0 | 2.0 | 0.00 | 0.00 | 0.00 | 88 | 1013.7 |
| 20260905063029 | 79 | 116 | 0.0 | 0.0 | 0.00 | 0.00 | 0.00 | 56 | 1013.3 |
| 20260905063023 | 80 | 258 | 0.0 | 2.0 | 0.00 | 0.00 | 0.00 | 87 | 1013.7 |
| 20260905062512 | 80 | 258 | 0.0 | 2.0 | 0.00 | 0.00 | 0.00 | 87 | 1013.7 |
| 20260905062014 | 80 | 275 | 0.0 | 2.0 | 0.00 | 0.00 | 0.00 | 87 | 1013.8 |
| 20260905061527 | 80 | 277 | 0.0 | 2.0 | 0.00 | 0.00 | 0.00 | 87 | 1013.9 |
| 20260905061524 | 79 | 116 | 0.0 | 1.0 | 0.00 | 0.00 | 0.00 | 55 | 1013.3 |
| 20260905061015 | 80 | 192 | 0.0 | 2.0 | 0.00 | 0.00 | 0.00 | 87 | 1013.8 |
| 20260905060516 | 80 | 206 | 0.0 | 2.0 | 0.00 | 0.00 | 0.00 | 87 | 1013.8 |
| 20260905060021 | 80 | 116 | 0.0 | 1.0 | 0.00 | 0.00 | 0.00 | 54 | 1013.3 |
| 20260905060011 | 80 | 207 | 0.0 | 2.0 | 0.00 | 0.00 | 0.00 | 86 | 1013.8 |
| 20260905055505 | 80 | 272 | 0.0 | 2.0 | 0.00 | 0.00 | 0.00 | 86 | 1013.9 |
| 20260905055004 | 80 | 243 | 0.0 | 2.0 | 0.00 | 0.00 | 0.00 | 86 | 1013.9 |
| 20260905054518 | 80 | 122 | 3.0 | 4.0 | 0.00 | 0.00 | 0.00 | 54 | 1013.3 |
| 20260905054514 | 80 | 221 | 0.0 | 2.0 | 0.00 | 0.00 | 0.00 | 86 | 1013.9 |
| 20260905054009 | 80 | 222 | 0.0 | 2.0 | 0.00 | 0.00 | 0.00 | 86 | 1014.0 |
| 20260905053508 | 80 | 186 | 0.0 | 2.0 | 0.00 | 0.00 | 0.00 | 86 | 1014.0 |
| 20260905053021 | 81 | 252 | 0.0 | 2.0 | 0.00 | 0.00 | 0.00 | 86 | 1013.9 |
| 20260905053015 | 80 | 113 | 0.0 | 3.0 | 0.00 | 0.00 | 0.00 | 54 | 1013.2 |
| 20260905052512 | 81 | 286 | 0.0 | 3.0 | 0.00 | 0.00 | 0.00 | 86 | 1014.0 |
| 20260905052013 | 81 | 256 | 0.0 | 3.0 | 0.00 | 0.00 | 0.00 | 86 | 1014.1 |
| 20260905051530 | 81 | 247 | 0.0 | 3.0 | 0.00 | 0.00 | 0.00 | 86 | 1014.2 |
| 20260905051510 | 81 | 125 | 0.0 | 1.0 | 0.00 | 0.00 | 0.00 | 52 | 1013.1 |
| 20260905051015 | 81 | 134 | 0.0 | 3.0 | 0.00 | 0.00 | 0.00 | 87 | 1014.2 |
| 20260905050514 | 81 | 186 | 0.0 | 2.0 | 0.00 | 0.00 | 0.00 | 87 | 1014.2 |
| 20260905050028 | 81 | 203 | 0.0 | 2.0 | 0.00 | 0.00 | 0.00 | 87 | 1014.2 |
| 20260905050006 | 82 | 125 | 0.0 | 1.0 | 0.00 | 0.00 | 0.00 | 51 | 1013.0 |
| 20260905045517 | 81 | 250 | 0.0 | 2.0 | 0.00 | 0.00 | 0.00 | 86 | 1014.2 |
| 20260905045006 | 81 | 232 | 0.0 | 1.0 | 0.00 | 0.00 | 0.00 | 86 | 1014.3 |
| 20260905044513 | 81 | 252 | 0.0 | 1.0 | 0.00 | 0.00 | 0.00 | 86 | 1014.3 |
| 20260905044507 | 82 | 125 | 0.0 | 1.0 | 0.00 | 0.00 | 0.00 | 51 | 1013.1 |
| 20260905044002 | 81 | 265 | 0.0 | 1.0 | 0.00 | 0.00 | 0.00 | 86 | 1014.2 |
| 20260905043503 | 82 | 265 | 0.0 | 2.0 | 0.00 | 0.00 | 0.00 | 86 | 1014.3 |
| 20260905043006 | 82 | 265 | 0.0 | 2.0 | 0.00 | 0.00 | 0.00 | 86 | 1014.3 |
| 20260905043003 | 83 | 126 | 0.0 | 2.0 | 0.00 | 0.00 | 0.00 | 50 | 1013.2 |
| 20260905042503 | 82 | 265 | 0.0 | 2.0 | 0.00 | 0.00 | 0.00 | 85 | 1014.3 |
| 20260905042003 | 82 | 265 | 0.0 | 1.0 | 0.00 | 0.00 | 0.00 | 85 | 1014.3 |
| 20260905041613 | 83 | 146 | 0.0 | 1.0 | 0.00 | 0.00 | 0.00 | 49 | 1013.2 |
| 20260905041506 | 82 | 265 | 0.0 | 1.0 | 0.00 | 0.00 | 0.00 | 85 | 1014.3 |
| 20260905041003 | 82 | 265 | 0.0 | 1.0 | 0.00 | 0.00 | 0.00 | 85 | 1014.4 |
| 20260905040505 | 82 | 265 | 0.0 | 1.0 | 0.00 | 0.00 | 0.00 | 85 | 1014.4 |
| 20260905040100 | 84 | 130 | 0.0 | 4.0 | 0.00 | 0.00 | 0.00 | 49 | 1013.1 |
| 20260905040007 | 82 | 265 | 0.0 | 1.0 | 0.00 | 0.00 | 0.00 | 84 | 1014.4 |
| 20260905035504 | 82 | 265 | 0.0 | 1.0 | 0.00 | 0.00 | 0.00 | 84 | 1014.4 |
| 20260905035003 | 82 | 265 | 0.0 | 1.0 | 0.00 | 0.00 | 0.00 | 83 | 1014.4 |
| 20260905034602 | 84 | 131 | 0.0 | 1.0 | 0.00 | 0.00 | 0.00 | 48 | 1013.2 |
| 20260905034510 | 83 | 265 | 0.0 | 1.0 | 0.00 | 0.00 | 0.00 | 83 | 1014.4 |
| 20260905034004 | 83 | 265 | 0.0 | 1.0 | 0.00 | 0.00 | 0.00 | 82 | 1014.5 |
| 20260905033503 | 83 | 265 | 0.0 | 1.0 | 0.00 | 0.00 | 0.00 | 80 | 1014.5 |
| 20260905033056 | 85 | 146 | 0.0 | 2.0 | 0.00 | 0.00 | 0.00 | 46 | 1013.3 |
| 20260905033007 | 83 | 265 | 0.0 | 0.0 | 0.00 | 0.00 | 0.00 | 80 | 1014.5 |
| 20260905032502 | 83 | 265 | 0.0 | 0.0 | 0.00 | 0.00 | 0.00 | 81 | 1014.6 |
| 20260905032004 | 83 | 265 | 0.0 | 0.0 | 0.00 | 0.00 | 0.00 | 81 | 1014.5 |
| 20260905031653 | 86 | 155 | 0.0 | 3.0 | 0.00 | 0.00 | 0.00 | 46 | 1013.2 |
| 20260905031508 | 83 | 265 | 0.0 | 0.0 | 0.00 | 0.00 | 0.00 | 80 | 1014.5 |
| 20260905031003 | 83 | 265 | 0.0 | 0.0 | 0.00 | 0.00 | 0.00 | 80 | 1014.6 |
| 20260905030503 | 83 | 265 | 0.0 | 0.0 | 0.00 | 0.00 | 0.00 | 81 | 1014.7 |
| 20260905030008 | 83 | 265 | 0.0 | 0.0 | 0.00 | 0.00 | 0.00 | 81 | 1014.6 |
| 20260905025503 | 83 | 265 | 0.0 | 0.0 | 0.00 | 0.00 | 0.00 | 81 | 1014.5 |
| 20260905025004 | 83 | 265 | 0.0 | 0.0 | 0.00 | 0.00 | 0.00 | 82 | 1014.5 |
| 20260905024550 | 87 | 160 | 0.0 | 5.0 | 0.00 | 0.00 | 0.00 | 43 | 1012.8 |
| 20260905024507 | 83 | 265 | 0.0 | 0.0 | 0.00 | 0.00 | 0.00 | 83 | 1014.4 |
| 20260905024002 | 83 | 265 | 0.0 | 1.0 | 0.00 | 0.00 | 0.00 | 84 | 1014.3 |
| 20260905023504 | 83 | 265 | 0.0 | 1.0 | 0.00 | 0.00 | 0.00 | 86 | 1014.3 |
| 20260905023049 | 87 | 143 | 2.0 | 6.0 | 0.00 | 0.00 | 0.00 | 42 | 1012.5 |
| 20260905023008 | 83 | 265 | 0.0 | 0.0 | 0.00 | 0.00 | 0.00 | 87 | 1014.2 |
| 20260905022506 | 83 | 265 | 0.0 | 0.0 | 0.00 | 0.00 | 0.00 | 86 | 1014.2 |
| 20260905022006 | 83 | 265 | 0.0 | 0.0 | 0.00 | 0.00 | 0.00 | 83 | 1014.2 |
| 20260905021546 | 88 | 117 | 1.0 | 9.0 | 0.00 | 0.00 | 0.00 | 40 | 1012.3 |
| 20260905021506 | 83 | 265 | 0.0 | 0.0 | 0.00 | 0.00 | 0.00 | 82 | 1014.2 |
| 20260905021003 | 83 | 265 | 0.0 | 0.0 | 0.00 | 0.00 | 0.00 | 82 | 1014.2 |
| 20260905020505 | 83 | 265 | 0.0 | 0.0 | 0.00 | 0.00 | 0.00 | 82 | 1014.2 |
| 20260905020049 | 88 | 130 | 4.0 | 9.0 | 0.00 | 0.00 | 0.00 | 38 | 1012.2 |
| 20260905020012 | 83 | 265 | 0.0 | 0.0 | 0.00 | 0.00 | 0.00 | 81 | 1014.1 |
| 20260905015507 | 83 | 264 | 0.0 | 0.0 | 0.00 | 0.00 | 0.00 | 81 | 1014.2 |
| 20260905015004 | 84 | 264 | 0.0 | 0.0 | 0.00 | 0.00 | 0.00 | 80 | 1014.0 |
| 20260905014541 | 89 | 117 | 5.0 | 8.0 | 0.00 | 0.00 | 0.00 | 36 | 1011.9 |
| 20260905014508 | 84 | 264 | 0.0 | 1.0 | 0.00 | 0.00 | 0.00 | 80 | 1013.9 |
| 20260905014006 | 84 | 265 | 0.0 | 1.0 | 0.00 | 0.00 | 0.00 | 80 | 1013.7 |
| 20260905013503 | 84 | 265 | 0.0 | 0.0 | 0.00 | 0.00 | 0.00 | 79 | 1013.6 |
| 20260905013048 | 90 | 129 | 4.0 | 8.0 | 0.00 | 0.00 | 0.00 | 36 | 1011.6 |
| 20260905013011 | 84 | 265 | 0.0 | 0.0 | 0.00 | 0.00 | 0.00 | 79 | 1013.5 |
| 20260905012504 | 85 | 265 | 0.0 | 0.0 | 0.00 | 0.00 | 0.00 | 78 | 1013.4 |
| 20260905012005 | 85 | 265 | 0.0 | 0.0 | 0.00 | 0.00 | 0.00 | 77 | 1013.4 |
| 20260905011614 | 91 | 121 | 2.0 | 6.0 | 0.00 | 0.00 | 0.00 | 35 | 1011.5 |
| 20260905011514 | 85 | 265 | 0.0 | 0.0 | 0.00 | 0.00 | 0.00 | 77 | 1013.5 |
| 20260905011006 | 85 | 265 | 0.0 | 0.0 | 0.00 | 0.00 | 0.00 | 76 | 1013.5 |
| 20260905010504 | 86 | 265 | 0.0 | 0.0 | 0.00 | 0.00 | 0.00 | 75 | 1013.4 |
| 20260905010038 | 91 | 186 | 1.0 | 8.0 | 0.00 | 0.00 | 0.00 | 34 | 1011.3 |
| 20260905010010 | 86 | 265 | 0.0 | 0.0 | 0.00 | 0.00 | 0.00 | 75 | 1013.5 |
| 20260905005505 | 86 | 265 | 0.0 | 0.0 | 0.00 | 0.00 | 0.00 | 74 | 1013.4 |
| 20260905005004 | 86 | 265 | 0.0 | 0.0 | 0.00 | 0.00 | 0.00 | 74 | 1013.4 |
| 20260905004536 | 93 | 133 | 1.0 | 7.0 | 0.00 | 0.00 | 0.00 | 34 | 1011.3 |
| 20260905004513 | 87 | 265 | 0.0 | 0.0 | 0.00 | 0.00 | 0.00 | 73 | 1013.4 |
| 20260905004005 | 87 | 265 | 0.0 | 2.0 | 0.00 | 0.00 | 0.00 | 73 | 1013.5 |
| 20260905003506 | 87 | 265 | 0.0 | 2.0 | 0.00 | 0.00 | 0.00 | 72 | 1013.4 |
| 20260905003036 | 94 | 191 | 2.0 | 12.0 | 0.00 | 0.00 | 0.00 | 33 | 1011.2 |
| 20260905003008 | 87 | 215 | 0.0 | 2.0 | 0.00 | 0.00 | 0.00 | 71 | 1013.4 |
| 20260905002503 | 88 | 211 | 0.0 | 2.0 | 0.00 | 0.00 | 0.00 | 72 | 1013.4 |
| 20260905002003 | 88 | 211 | 0.0 | 1.0 | 0.00 | 0.00 | 0.00 | 71 | 1013.3 |
| 20260905001541 | 94 | 124 | 6.0 | 17.0 | 0.00 | 0.00 | 0.00 | 32 | 1010.9 |
| 20260905001511 | 88 | 211 | 0.0 | 2.0 | 0.00 | 0.00 | 0.00 | 70 | 1013.4 |
| 20260905001004 | 89 | 211 | 0.0 | 2.0 | 0.00 | 0.00 | 0.00 | 70 | 1013.5 |
| 20260905000504 | 89 | 258 | 0.0 | 2.0 | 0.00 | 0.00 | 0.00 | 69 | 1013.4 |
| 20260905000028 | 95 | 178 | 0.0 | 13.0 | 0.00 | 0.00 | 0.00 | 30 | 1010.7 |
| 20260905000016 | 89 | 266 | 0.0 | 2.0 | 0.00 | 0.00 | 0.00 | 69 | 1013.3 |
| 20260904235503 | 89 | 248 | 0.0 | 2.0 | 0.00 | 0.00 | 0.00 | 68 | 1013.5 |
| 20260904235003 | 90 | 248 | 0.0 | 2.0 | 0.00 | 0.00 | 0.00 | 68 | 1013.5 |
| 20260904234526 | 96 | 118 | 6.0 | 10.0 | 0.00 | 0.00 | 0.00 | 29 | 1010.6 |
| 20260904234513 | 90 | 281 | 0.0 | 3.0 | 0.00 | 0.00 | 0.00 | 68 | 1013.6 |
| 20260904234004 | 90 | 229 | 1.0 | 6.0 | 0.00 | 0.00 | 0.00 | 67 | 1013.6 |
| 20260904233504 | 90 | 281 | 1.0 | 6.0 | 0.00 | 0.00 | 0.00 | 66 | 1013.5 |
| 20260904233024 | 96 | 103 | 10.0 | 15.0 | 0.00 | 0.00 | 0.00 | 29 | 1010.6 |
| 20260904233012 | 91 | 264 | 1.0 | 6.0 | 0.00 | 0.00 | 0.00 | 65 | 1013.5 |
| 20260904232507 | 91 | 238 | 1.0 | 6.0 | 0.00 | 0.00 | 0.00 | 65 | 1013.5 |
| 20260904232008 | 91 | 248 | 2.0 | 6.0 | 0.00 | 0.00 | 0.00 | 65 | 1013.5 |
| 20260904231521 | 98 | 127 | 2.0 | 11.0 | 0.00 | 0.00 | 0.00 | 27 | 1010.6 |
| 20260904231513 | 91 | 250 | 0.0 | 6.0 | 0.00 | 0.00 | 0.00 | 64 | 1013.6 |
| 20260904231005 | 92 | 221 | 1.0 | 4.0 | 0.00 | 0.00 | 0.00 | 64 | 1013.5 |
| 20260904230507 | 92 | 216 | 1.0 | 4.0 | 0.00 | 0.00 | 0.00 | 64 | 1013.5 |
| 20260904230034 | 92 | 269 | 0.0 | 6.0 | 0.00 | 0.00 | 0.00 | 64 | 1013.6 |
| 20260904230019 | 100 | 146 | 0.0 | 5.0 | 0.00 | 0.00 | 0.00 | 26 | 1010.5 |
| 20260904225507 | 92 | 211 | 2.0 | 6.0 | 0.00 | 0.00 | 0.00 | 64 | 1013.7 |
| 20260904225008 | 92 | 223 | 1.0 | 3.0 | 0.00 | 0.00 | 0.00 | 64 | 1013.7 |
| 20260904224515 | 92 | 230 | 0.0 | 3.0 | 0.00 | 0.00 | 0.00 | 63 | 1013.6 |
| 20260904224512 | 99 | 162 | 0.0 | 5.0 | 0.00 | 0.00 | 0.00 | 28 | 1010.6 |
| 20260904224004 | 93 | 188 | 0.0 | 3.0 | 0.00 | 0.00 | 0.00 | 63 | 1013.6 |
| 20260904223504 | 93 | 246 | 0.0 | 4.0 | 0.00 | 0.00 | 0.00 | 62 | 1013.6 |
| 20260904223015 | 93 | 233 | 2.0 | 4.0 | 0.00 | 0.00 | 0.00 | 61 | 1013.5 |
| 20260904223009 | 97 | 115 | 9.0 | 14.0 | 0.00 | 0.00 | 0.00 | 29 | 1010.7 |
| 20260904222506 | 94 | 221 | 1.0 | 4.0 | 0.00 | 0.00 | 0.00 | 60 | 1013.4 |
| 20260904222004 | 94 | 232 | 1.0 | 7.0 | 0.00 | 0.00 | 0.00 | 59 | 1013.5 |
| 20260904221508 | 94 | 284 | 3.0 | 8.0 | 0.00 | 0.00 | 0.00 | 60 | 1013.4 |
| 20260904221003 | 94 | 276 | 3.0 | 8.0 | 0.00 | 0.00 | 0.00 | 60 | 1013.4 |
| 20260904220507 | 94 | 193 | 3.0 | 9.0 | 0.00 | 0.00 | 0.00 | 60 | 1013.3 |
| 20260904220014 | 94 | 190 | 4.0 | 9.0 | 0.00 | 0.00 | 0.00 | 60 | 1013.3 |
| 20260904220004 | 98 | 129 | 4.0 | 14.0 | 0.00 | 0.00 | 0.00 | 29 | 1010.8 |
| 20260904215508 | 94 | 184 | 4.0 | 8.0 | 0.00 | 0.00 | 0.00 | 60 | 1013.4 |
| 20260904215007 | 94 | 182 | 4.0 | 7.0 | 0.00 | 0.00 | 0.00 | 60 | 1013.4 |
| 20260904214600 | 97 | 129 | 1.0 | 12.0 | 0.00 | 0.00 | 0.00 | 27 | 1011.0 |
| 20260904214516 | 94 | 196 | 2.0 | 10.0 | 0.00 | 0.00 | 0.00 | 60 | 1013.3 |
| 20260904214005 | 94 | 193 | 4.0 | 10.0 | 0.00 | 0.00 | 0.00 | 61 | 1013.3 |
| 20260904213512 | 95 | 190 | 3.0 | 7.0 | 0.00 | 0.00 | 0.00 | 59 | 1013.4 |
| 20260904213100 | 97 | 191 | 4.0 | 14.0 | 0.00 | 0.00 | 0.00 | 26 | 1011.1 |
| 20260904213019 | 95 | 253 | 1.0 | 8.0 | 0.00 | 0.00 | 0.00 | 60 | 1013.4 |
| 20260904212508 | 95 | 287 | 4.0 | 8.0 | 0.00 | 0.00 | 0.00 | 59 | 1013.4 |
| 20260904212002 | 95 | 232 | 2.0 | 8.0 | 0.00 | 0.00 | 0.00 | 58 | 1013.4 |
| 20260904211553 | 99 | 131 | 0.0 | 14.0 | 0.00 | 0.00 | 0.00 | 27 | 1011.2 |
| 20260904211505 | 95 | 137 | 4.0 | 8.0 | 0.00 | 0.00 | 0.00 | 59 | 1013.5 |
| 20260904211002 | 95 | 311 | 2.0 | 10.0 | 0.00 | 0.00 | 0.00 | 57 | 1013.5 |
| 20260904210504 | 96 | 182 | 2.0 | 10.0 | 0.00 | 0.00 | 0.00 | 58 | 1013.5 |
| 20260904210048 | 98 | 187 | 1.0 | 8.0 | 0.00 | 0.00 | 0.00 | 29 | 1011.4 |
| 20260904210019 | 96 | 180 | 2.0 | 8.0 | 0.00 | 0.00 | 0.00 | 56 | 1013.6 |
| 20260904205504 | 96 | 195 | 1.0 | 9.0 | 0.00 | 0.00 | 0.00 | 57 | 1013.7 |
| 20260904205004 | 96 | 184 | 4.0 | 9.0 | 0.00 | 0.00 | 0.00 | 58 | 1013.7 |
| 20260904204544 | 97 | 148 | 2.0 | 12.0 | 0.00 | 0.00 | 0.00 | 29 | 1011.5 |
| 20260904204516 | 95 | 221 | 2.0 | 6.0 | 0.00 | 0.00 | 0.00 | 59 | 1013.7 |
| 20260904204008 | 95 | 170 | 1.0 | 7.0 | 0.00 | 0.00 | 0.00 | 58 | 1013.7 |
| 20260904203508 | 95 | 162 | 2.0 | 7.0 | 0.00 | 0.00 | 0.00 | 56 | 1013.9 |
| 20260904203040 | 98 | 171 | 0.0 | 12.0 | 0.00 | 0.00 | 0.00 | 27 | 1011.8 |
| 20260904203019 | 95 | 207 | 2.0 | 7.0 | 0.00 | 0.00 | 0.00 | 57 | 1014.0 |
| 20260904202507 | 95 | 143 | 1.0 | 7.0 | 0.00 | 0.00 | 0.00 | 57 | 1014.1 |
| 20260904202009 | 95 | 132 | 2.0 | 6.0 | 0.00 | 0.00 | 0.00 | 58 | 1014.1 |
| 20260904201536 | 97 | 146 | 3.0 | 11.0 | 0.00 | 0.00 | 0.00 | 28 | 1011.9 |
| 20260904201516 | 95 | 142 | 2.0 | 6.0 | 0.00 | 0.00 | 0.00 | 58 | 1014.1 |
| 20260904201003 | 95 | 192 | 2.0 | 6.0 | 0.00 | 0.00 | 0.00 | 58 | 1014.1 |
| 20260904200503 | 95 | 165 | 2.0 | 7.0 | 0.00 | 0.00 | 0.00 | 59 | 1014.2 |
| 20260904200033 | 98 | 87 | 9.0 | 13.0 | 0.00 | 0.00 | 0.00 | 26 | 1012.2 |
| 20260904200016 | 94 | 90 | 2.0 | 8.0 | 0.00 | 0.00 | 0.00 | 58 | 1014.3 |
| 20260904195504 | 94 | 166 | 5.0 | 8.0 | 0.00 | 0.00 | 0.00 | 60 | 1014.4 |
| 20260904195006 | 94 | 173 | 2.0 | 7.0 | 0.00 | 0.00 | 0.00 | 63 | 1014.4 |
| 20260904194528 | 97 | 115 | 5.0 | 15.0 | 0.00 | 0.00 | 0.00 | 29 | 1012.3 |
| 20260904194513 | 93 | 109 | 2.0 | 7.0 | 0.00 | 0.00 | 0.00 | 62 | 1014.4 |
| 20260904194010 | 93 | 111 | 2.0 | 6.0 | 0.00 | 0.00 | 0.00 | 63 | 1014.5 |
| 20260904193508 | 93 | 99 | 1.0 | 7.0 | 0.00 | 0.00 | 0.00 | 63 | 1014.6 |
| 20260904193027 | 98 | 90 | 4.0 | 9.0 | 0.00 | 0.00 | 0.00 | 29 | 1012.6 |
| 20260904193020 | 94 | 119 | 3.0 | 7.0 | 0.00 | 0.00 | 0.00 | 63 | 1014.6 |
| 20260904192512 | 93 | 165 | 2.0 | 8.0 | 0.00 | 0.00 | 0.00 | 63 | 1014.6 |
| 20260904192009 | 93 | 111 | 2.0 | 8.0 | 0.00 | 0.00 | 0.00 | 64 | 1014.7 |
| 20260904191522 | 96 | 138 | 0.0 | 9.0 | 0.00 | 0.00 | 0.00 | 35 | 1012.9 |
| 20260904191520 | 93 | 142 | 1.0 | 7.0 | 0.00 | 0.00 | 0.00 | 64 | 1014.8 |
| 20260904191009 | 93 | 5 | 2.0 | 7.0 | 0.00 | 0.00 | 0.00 | 66 | 1014.9 |
| 20260904190510 | 92 | 117 | 4.0 | 8.0 | 0.00 | 0.00 | 0.00 | 64 | 1015.1 |
| 20260904190021 | 94 | 110 | 0.0 | 9.0 | 0.00 | 0.00 | 0.00 | 34 | 1013.1 |
| 20260904185504 | 92 | 283 | 3.0 | 11.0 | 0.00 | 0.00 | 0.00 | 64 | 1015.2 |
| 20260904185004 | 92 | 96 | 4.0 | 11.0 | 0.00 | 0.00 | 0.00 | 66 | 1015.3 |
| 20260904184517 | 95 | 113 | 4.0 | 10.0 | 0.00 | 0.00 | 0.00 | 35 | 1013.2 |
| 20260904184510 | 91 | 88 | 2.0 | 7.0 | 0.00 | 0.00 | 0.00 | 68 | 1015.4 |
| 20260904184007 | 90 | 94 | 2.0 | 12.0 | 0.00 | 0.00 | 0.00 | 67 | 1015.4 |
| 20260904183508 | 90 | 30 | 3.0 | 12.0 | 0.00 | 0.00 | 0.00 | 65 | 1015.5 |
| 20260904183016 | 95 | 210 | 0.0 | 5.0 | 0.00 | 0.00 | 0.00 | 36 | 1013.4 |
| 20260904182508 | 91 | 49 | 2.0 | 6.0 | 0.00 | 0.00 | 0.00 | 66 | 1015.8 |
| 20260904182014 | 91 | 68 | 2.0 | 6.0 | 0.00 | 0.00 | 0.00 | 66 | 1015.9 |
| 20260904181538 | 96 | 95 | 1.0 | 8.0 | 0.00 | 0.00 | 0.00 | 35 | 1013.6 |
| 20260904181527 | 91 | 9 | 2.0 | 6.0 | 0.00 | 0.00 | 0.00 | 65 | 1016.0 |
| 20260904181012 | 92 | 49 | 1.0 | 6.0 | 0.00 | 0.00 | 0.00 | 63 | 1016.2 |
| 20260904180509 | 92 | 10 | 2.0 | 5.0 | 0.00 | 0.00 | 0.00 | 62 | 1016.2 |
| 20260904180024 | 92 | 22 | 1.0 | 7.0 | 0.00 | 0.00 | 0.00 | 61 | 1016.3 |
| 20260904180012 | 97 | 116 | 0.0 | 3.0 | 0.00 | 0.00 | 0.00 | 31 | 1013.9 |
| 20260904175509 | 92 | 5 | 2.0 | 9.0 | 0.00 | 0.00 | 0.00 | 65 | 1016.3 |
| 20260904175010 | 92 | 36 | 2.0 | 10.0 | 0.00 | 0.00 | 0.00 | 63 | 1016.4 |
| 20260904174510 | 92 | 46 | 3.0 | 10.0 | 0.00 | 0.00 | 0.00 | 64 | 1016.5 |
| 20260904174506 | 96 | 109 | 0.0 | 4.0 | 0.00 | 0.00 | 0.00 | 33 | 1014.0 |
| 20260904174006 | 91 | 46 | 2.0 | 8.0 | 0.00 | 0.00 | 0.00 | 63 | 1016.5 |
| 20260904173505 | 91 | 71 | 3.0 | 8.0 | 0.00 | 0.00 | 0.00 | 64 | 1016.4 |
| 20260904173104 | 95 | 141 | 0.0 | 3.0 | 0.00 | 0.00 | 0.00 | 34 | 1014.2 |
| 20260904173013 | 91 | 297 | 2.0 | 8.0 | 0.00 | 0.00 | 0.00 | 64 | 1016.4 |
| 20260904172508 | 91 | 65 | 2.0 | 8.0 | 0.00 | 0.00 | 0.00 | 64 | 1016.4 |
| 20260904172007 | 91 | 349 | 2.0 | 4.0 | 0.00 | 0.00 | 0.00 | 64 | 1016.4 |
| 20260904171608 | 94 | 134 | 0.0 | 4.0 | 0.00 | 0.00 | 0.00 | 35 | 1014.3 |
| 20260904171515 | 91 | 360 | 1.0 | 5.0 | 0.00 | 0.00 | 0.00 | 66 | 1016.5 |
| 20260904171009 | 91 | 5 | 1.0 | 6.0 | 0.00 | 0.00 | 0.00 | 64 | 1016.4 |
| 20260904170511 | 91 | 22 | 2.0 | 7.0 | 0.00 | 0.00 | 0.00 | 64 | 1016.5 |
| 20260904170053 | 93 | 214 | 1.0 | 5.0 | 0.00 | 0.00 | 0.00 | 39 | 1014.5 |
| 20260904170039 | 91 | 69 | 2.0 | 7.0 | 0.00 | 0.00 | 0.00 | 64 | 1016.5 |
| 20260904165511 | 91 | 47 | 1.0 | 8.0 | 0.00 | 0.00 | 0.00 | 63 | 1016.4 |
| 20260904165012 | 91 | 5 | 3.0 | 8.0 | 0.00 | 0.00 | 0.00 | 62 | 1016.5 |
| 20260904164550 | 92 | 155 | 0.0 | 6.0 | 0.00 | 0.00 | 0.00 | 41 | 1014.6 |
| 20260904164519 | 92 | 255 | 1.0 | 5.0 | 0.00 | 0.00 | 0.00 | 65 | 1016.4 |
| 20260904164011 | 91 | 277 | 2.0 | 7.0 | 0.00 | 0.00 | 0.00 | 61 | 1016.4 |
| 20260904163508 | 91 | 9 | 2.0 | 7.0 | 0.00 | 0.00 | 0.00 | 61 | 1016.4 |
| 20260904163047 | 92 | 210 | 1.0 | 6.0 | 0.00 | 0.00 | 0.00 | 42 | 1014.7 |
| 20260904163010 | 91 | 64 | 1.0 | 5.0 | 0.00 | 0.00 | 0.00 | 66 | 1016.3 |
| 20260904162508 | 91 | 360 | 2.0 | 5.0 | 0.00 | 0.00 | 0.00 | 63 | 1016.3 |
| 20260904162004 | 91 | 309 | 1.0 | 4.0 | 0.00 | 0.00 | 0.00 | 65 | 1016.3 |
| 20260904161541 | 89 | 186 | 0.0 | 4.0 | 0.00 | 0.00 | 0.00 | 47 | 1014.7 |
| 20260904161519 | 91 | 241 | 1.0 | 4.0 | 0.00 | 0.00 | 0.00 | 65 | 1016.2 |
| 20260904161010 | 90 | 260 | 1.0 | 4.0 | 0.00 | 0.00 | 0.00 | 67 | 1016.1 |
| 20260904160511 | 90 | 26 | 2.0 | 4.0 | 0.00 | 0.00 | 0.00 | 67 | 1016.2 |
| 20260904160036 | 87 | 165 | 0.0 | 2.0 | 0.00 | 0.00 | 0.00 | 51 | 1014.6 |
| 20260904160022 | 89 | 298 | 1.0 | 5.0 | 0.00 | 0.00 | 0.00 | 66 | 1016.1 |
| 20260904155511 | 89 | 346 | 2.0 | 6.0 | 0.00 | 0.00 | 0.00 | 68 | 1015.9 |
| 20260904155014 | 88 | 286 | 1.0 | 6.0 | 0.00 | 0.00 | 0.00 | 69 | 1015.9 |
| 20260904154544 | 86 | 220 | 0.0 | 5.0 | 0.00 | 0.00 | 0.00 | 49 | 1014.5 |
| 20260904154523 | 87 | 191 | 2.0 | 6.0 | 0.00 | 0.00 | 0.00 | 71 | 1015.8 |
| 20260904154011 | 87 | 313 | 2.0 | 6.0 | 0.00 | 0.00 | 0.00 | 70 | 1015.9 |
| 20260904153511 | 86 | 277 | 1.0 | 3.0 | 0.00 | 0.00 | 0.00 | 71 | 1015.8 |
| 20260904153033 | 87 | 205 | 0.0 | 5.0 | 0.00 | 0.00 | 0.00 | 52 | 1014.5 |
| 20260904153027 | 86 | 170 | 1.0 | 4.0 | 0.00 | 0.00 | 0.00 | 70 | 1015.9 |
| 20260904152511 | 86 | 163 | 1.0 | 4.0 | 0.00 | 0.00 | 0.00 | 69 | 1015.9 |
| 20260904152003 | 86 | 271 | 1.0 | 4.0 | 0.00 | 0.00 | 0.00 | 70 | 1016.0 |
| 20260904151529 | 86 | 195 | 0.0 | 3.0 | 0.00 | 0.00 | 0.00 | 53 | 1014.4 |
| 20260904151513 | 86 | 278 | 0.0 | 7.0 | 0.00 | 0.00 | 0.00 | 70 | 1016.0 |
| 20260904151009 | 86 | 250 | 1.0 | 7.0 | 0.00 | 0.00 | 0.00 | 70 | 1016.0 |
| 20260904150507 | 86 | 288 | 1.0 | 3.0 | 0.00 | 0.00 | 0.00 | 69 | 1016.1 |
| 20260904150026 | 86 | 204 | 3.0 | 7.0 | 0.00 | 0.00 | 0.00 | 54 | 1014.5 |
| 20260904150016 | 86 | 257 | 1.0 | 5.0 | 0.00 | 0.00 | 0.00 | 69 | 1016.1 |
| 20260904145513 | 87 | 274 | 1.0 | 6.0 | 0.00 | 0.00 | 0.00 | 68 | 1016.1 |
| 20260904145012 | 87 | 224 | 2.0 | 6.0 | 0.00 | 0.00 | 0.00 | 67 | 1016.2 |
| 20260904144523 | 86 | 198 | 0.0 | 2.0 | 0.00 | 0.00 | 0.00 | 50 | 1014.5 |
| 20260904144012 | 88 | 237 | 1.0 | 6.0 | 0.00 | 0.00 | 0.00 | 67 | 1016.2 |
| 20260904143510 | 88 | 221 | 3.0 | 7.0 | 0.00 | 0.00 | 0.00 | 66 | 1016.0 |
| 20260904143029 | 82 | 220 | 0.0 | 4.0 | 0.00 | 0.00 | 0.00 | 53 | 1014.4 |
| 20260904143024 | 87 | 5 | 1.0 | 7.0 | 0.00 | 0.00 | 0.00 | 69 | 1016.0 |
| 20260904142512 | 87 | 262 | 2.0 | 7.0 | 0.00 | 0.00 | 0.00 | 69 | 1015.8 |
| 20260904142015 | 87 | 237 | 1.0 | 6.0 | 0.00 | 0.00 | 0.00 | 69 | 1015.7 |
| 20260904141527 | 86 | 286 | 1.0 | 6.0 | 0.00 | 0.00 | 0.00 | 69 | 1015.7 |
| 20260904141512 | 81 | 158 | 0.0 | 3.0 | 0.00 | 0.00 | 0.00 | 44 | 1014.3 |
| 20260904141004 | 86 | 258 | 1.0 | 6.0 | 0.00 | 0.00 | 0.00 | 70 | 1015.5 |
| 20260904140508 | 86 | 246 | 2.0 | 8.0 | 0.00 | 0.00 | 0.00 | 71 | 1015.5 |
| 20260904140019 | 79 | 119 | 2.0 | 6.0 | 0.00 | 0.00 | 0.00 | 42 | 1014.4 |
| 20260904140015 | 86 | 233 | 2.0 | 8.0 | 0.00 | 0.00 | 0.00 | 71 | 1015.6 |
| 20260904135510 | 85 | 210 | 1.0 | 5.0 | 0.00 | 0.00 | 0.00 | 72 | 1015.6 |
| 20260904135011 | 85 | 279 | 1.0 | 5.0 | 0.00 | 0.00 | 0.00 | 74 | 1015.5 |
| 20260904134524 | 84 | 229 | 1.0 | 7.0 | 0.00 | 0.00 | 0.00 | 74 | 1015.4 |
| 20260904134503 | 78 | 115 | 0.0 | 1.0 | 0.00 | 0.00 | 0.00 | 42 | 1014.3 |
| 20260904134009 | 84 | 234 | 2.0 | 7.0 | 0.00 | 0.00 | 0.00 | 74 | 1015.3 |
| 20260904133514 | 83 | 296 | 1.0 | 3.0 | 0.00 | 0.00 | 0.00 | 77 | 1015.5 |
| 20260904133027 | 82 | 183 | 0.0 | 3.0 | 0.00 | 0.00 | 0.00 | 80 | 1015.4 |
| 20260904133001 | 78 | 115 | 1.0 | 3.0 | 0.00 | 0.00 | 0.00 | 42 | 1014.2 |
| 20260904132514 | 81 | 174 | 0.0 | 3.0 | 0.00 | 0.00 | 0.00 | 80 | 1015.4 |
| 20260904132003 | 80 | 242 | 0.0 | 4.0 | 0.00 | 0.00 | 0.00 | 82 | 1015.4 |
| 20260904131601 | 78 | 115 | 0.0 | 0.0 | 0.00 | 0.00 | 0.00 | 43 | 1014.0 |
| 20260904131508 | 79 | 251 | 0.0 | 4.0 | 0.00 | 0.00 | 0.00 | 82 | 1015.3 |
| 20260904131003 | 78 | 220 | 0.0 | 4.0 | 0.00 | 0.00 | 0.00 | 83 | 1015.2 |
| 20260904130504 | 78 | 210 | 0.0 | 4.0 | 0.00 | 0.00 | 0.00 | 84 | 1015.2 |
| 20260904130054 | 0 | 0.0 | 0.0 | 0.00 | 0.00 | 0.00 | 1013.9 | ||
| 20260904130017 | 78 | 225 | 2.0 | 4.0 | 0.00 | 0.00 | 0.00 | 84 | 1015.1 |
| 20260904125507 | 77 | 239 | 1.0 | 7.0 | 0.00 | 0.00 | 0.00 | 86 | 1015.1 |
| 20260904125012 | 76 | 244 | 1.0 | 7.0 | 0.00 | 0.00 | 0.00 | 86 | 1015.0 |
| 20260904124549 | 0 | 0.0 | 0.0 | 0.00 | 0.00 | 0.00 | 1013.7 | ||
| 20260904124523 | 76 | 184 | 1.0 | 5.0 | 0.00 | 0.00 | 0.00 | 87 | 1014.9 |
| 20260904124009 | 76 | 188 | 1.0 | 5.0 | 0.00 | 0.00 | 0.00 | 88 | 1014.8 |
| 20260904123514 | 75 | 247 | 2.0 | 5.0 | 0.00 | 0.00 | 0.00 | 88 | 1014.8 |
| 20260904123044 | 0 | 0.0 | 0.0 | 0.00 | 0.00 | 0.00 | 1013.6 | ||
| 20260904123026 | 75 | 194 | 1.0 | 5.0 | 0.00 | 0.00 | 0.00 | 89 | 1014.7 |
| 20260904122514 | 75 | 195 | 1.0 | 4.0 | 0.00 | 0.00 | 0.00 | 89 | 1014.6 |
| 20260904122012 | 75 | 165 | 1.0 | 5.0 | 0.00 | 0.00 | 0.00 | 89 | 1014.5 |
| 20260904121538 | 0 | 0.0 | 0.0 | 0.00 | 0.00 | 0.00 | 1013.2 | ||
| 20260904121530 | 74 | 184 | 3.0 | 5.0 | 0.00 | 0.00 | 0.00 | 90 | 1014.4 |
| 20260904121003 | 74 | 188 | 1.0 | 4.0 | 0.00 | 0.00 | 0.00 | 90 | 1014.3 |
| 20260904120503 | 74 | 196 | 1.0 | 5.0 | 0.00 | 0.00 | 0.00 | 90 | 1014.3 |
| 20260904120044 | 0 | 0.0 | 0.0 | 0.00 | 0.00 | 0.00 | 1013.1 | ||
| 20260904120016 | 74 | 212 | 3.0 | 5.0 | 0.00 | 0.00 | 0.00 | 90 | 1014.2 |
| 20260904115507 | 74 | 199 | 2.0 | 5.0 | 0.00 | 0.00 | 0.00 | 90 | 1014.1 |
| 20260904115004 | 74 | 199 | 2.0 | 5.0 | 0.00 | 0.00 | 0.00 | 89 | 1014.1 |
| 20260904114528 | 0 | 0.0 | 0.0 | 0.00 | 0.00 | 0.00 | 1013.1 | ||
| 20260904114514 | 74 | 178 | 2.0 | 5.0 | 0.00 | 0.00 | 0.00 | 89 | 1014.0 |
| 20260904114010 | 74 | 184 | 2.0 | 5.0 | 0.00 | 0.00 | 0.00 | 89 | 1014.1 |
| 20260904113508 | 74 | 187 | 2.0 | 5.0 | 0.00 | 0.00 | 0.00 | 89 | 1014.0 |